Location: Turtle Rock Observatory
(36.6913°N, 81.9708°W)
Time: 02:45:53
(UTC-05:00)

Daily predictions for brighter satellites

Satellite Brightness Start Highest point End
(mag) Time Altitude Azimuth Time Altitude Azimuth Time Altitude Azimuth
Milstar 3 Cent rocket 4.1 04:00:25 40° SSE 04:00:25 40° SSE 04:09:45 10° ESE
USA 234 4.1 04:18:52 10° ESE 04:24:54 41° NE 04:24:58 41° NNE
Lacrosse 5 rocket 4.3 04:29:41 14° NE 04:29:41 14° NE 04:31:00 10° ENE
Cosmos 1634 Rocket 4.5 04:40:46 40° NNE 04:42:50 58° E 04:49:03 10° SSE
NOSS 3-4 (A) 3.9 04:52:08 60° N 04:53:32 77° ENE 05:01:12 10° SE
NOSS 3-4 (C) 3.9 04:52:11 59° N 04:53:39 76° ENE 05:01:17 10° SE
Cosmos 44 Rocket 4.2 04:54:51 43° ESE 04:54:51 43° ESE 04:59:03 10° NE
Cosmos 2082 Rocket 2.3 05:00:21 40° S 05:02:27 72° ESE 05:08:09 10° NNE
Cosmos 1697 Rocket 3.7 05:05:47 24° N 05:08:40 41° ENE 05:13:56 10° SE
OAO 2 Rocket 3.4 05:13:29 74° S 05:13:29 74° S 05:18:36 10° E
Cosmos 1833 Rocket 2.5 05:16:11 53° SSW 05:17:33 82° WNW 05:23:12 10° NNE
Landsat 4 4.1 05:20:10 10° SSE 05:23:47 59° E 05:23:47 59° E
Cosmos 2084 3.8 05:25:13 52° SSE 05:25:13 52° SSE 05:28:16 10° SSE
Meteor 1-18 Rocket 4.3 05:30:17 52° WNW 05:30:51 54° W 05:36:35 10° S
Feng Yun 1-1 Rocket 4.4 05:26:41 10° NNE 05:32:33 78° ESE 05:38:14 10° S
USA 267 4.5 05:29:17 10° NNE 05:34:06 23° NNW 05:34:15 23° NNW
NOAA 6 4.0 05:29:31 10° NNE 05:34:41 80° ESE 05:39:48 10° S
Meteor 1-11 Rocket 4.2 05:29:49 10° S 05:35:42 68° E 05:41:35 10° NNE
Cosmos 2142 Rocket 4.4 05:32:45 26° NNW 05:36:11 60° W 05:42:15 10° S
Cosmos 2151 Rocket 4.1 05:32:38 10° S 05:36:56 59° E 05:41:16 10° NNE
Cosmos 1975 Rocket 3.2 05:37:38 55° WSW 05:37:38 55° WSW 05:41:29 10° S
IDEFIX/ARIANE 42P 2.9 05:34:56 10° NNE 05:40:07 65° E 05:45:17 10° S
Cosmos 44 3.4 05:43:32 44° NNW 05:43:32 44° NNW 05:47:03 10° NNE
PAYLOAD A 4.3 05:38:25 10° NNE 05:43:53 75° ESE 05:49:14 10° S
Okean 2 Rocket 3.2 05:41:20 10° SSW 05:45:43 51° W 05:50:09 10° N
Cosmos 1980 Rocket 3.0 05:41:42 10° N 05:47:09 51° ENE 05:52:38 10° SE
SJ 16-02 1.2 05:45:52 36° NNW 05:47:39 80° WSW 05:52:05 10° SSE
Cosmos 292 Rocket 3.9 05:48:56 38° WSW 05:50:05 46° WNW 05:54:40 10° N
Okean-O 2.5 05:45:59 10° N 05:50:25 74° WNW 05:54:50 10° SSW
SL-24 R/B - RUBIN 2 3.5 05:51:41 43° WNW 05:52:54 61° WSW 05:57:07 10° SSE
Meteor 2-4 Rocket 3.9 05:48:50 10° N 05:54:14 72° E 05:59:44 10° SSE
Cosmos 2279 Rocket 3.9 05:49:58 10° NNW 05:56:06 62° W 06:02:12 10° S
MTI 3.8 05:53:03 10° S 05:55:59 54° WSW 05:55:59 54° WSW
RESURS DK-1 3.8 05:53:09 11° N 05:56:49 35° ENE 06:00:37 10° SE
Cosmos 1300 Rocket 3.9 05:54:54 10° S 05:59:09 64° E 06:03:25 10° NNE
Cosmos 783 Rocket 4.5 05:55:24 10° SSW 06:00:35 60° WNW 06:05:51 10° N
Cosmos 1536 Rocket 3.6 06:00:44 10° N 06:05:05 81° E 06:09:26 10° S
Meteor 1-19 Rocket 4.3 06:00:01 10° NNW 06:05:50 62° W 06:11:36 10° S
COSMO-SKYMED 1 2.6 06:02:29 10° S 06:06:44 56° W 06:10:14 15° NNW
Cosmos 2180 Rocket 4.5 06:00:44 10° NNW 06:06:59 62° W 06:13:10 10° S
USA 234 3.4 06:01:17 10° SSE 06:07:42 57° SW 06:12:21 20° WNW
Lacrosse 5 rocket 1.6 06:05:24 24° NW 06:08:12 81° NE 06:12:40 10° SE
Cosmos 1125 Rocket 3.8 06:05:45 23° NW 06:08:32 42° WSW 06:13:24 10° S
BREEZE-M DEB (TANK) 3.8 06:07:11 24° NW 06:09:06 53° NNE 06:15:33 10° ESE
SeaSat 1 4.5 06:09:49 10° NNW 06:10:14 11° NNW 06:10:14 11° NNW
Thor Agena Rocket 4.3 06:11:14 10° SSE 06:16:06 53° ENE 06:21:01 10° N
Cosmos 2360 4.3 06:10:38 10° NNW 06:16:24 83° ENE 06:22:07 10° SSE
Cosmos 773 Rocket 4.4 06:11:59 10° S 06:17:02 66° ESE 06:22:09 10° NNE
Cosmos 1484 Rocket 4.3 06:13:48 10° NNE 06:17:30 39° E 06:21:07 10° SSE
Tiangong 2 2.9 06:18:23 17° WSW 06:19:14 19° SW 06:21:35 10° S
SL-16 R/B 3.8 06:15:11 10° N 06:20:15 32° ENE 06:25:16 10° ESE
Cosmos 1025 Rocket 4.4 06:16:29 10° N 06:20:31 40° E 06:24:31 10° SSE
EO 1 Del DPAF 3.9 06:20:09 10° SSW 06:23:39 35° W 06:26:23 15° NW
Okean 1 Rocket 3.2 06:20:40 10° S 06:25:00 78° E 06:29:23 10° N
Cosmos 2322 Rocket 3.6 06:24:16 10° N 06:29:31 37° ENE 06:34:44 10° SE
Meteor 1-5 Rocket 4.1 06:25:16 10° SSW 06:30:44 60° W 06:36:05 10° N
Cosmos 1437 Rocket 3.2 06:29:51 10° SSW 06:33:38 40° WNW 06:37:22 10° N
GEOS 3 Rocket 3.9 06:28:45 10° NNE 06:33:55 48° NW 06:39:01 10° WSW
Cosmos 1538 Rocket 3.9 06:28:48 10° SSW 06:33:58 69° WNW 06:39:13 10° NNE
MSX 3.8 06:29:35 10° N 06:35:16 65° WNW 06:40:56 10° SSW
Cosmos 44 Rocket 4.5 06:33:43 14° W 06:36:18 20° NW 06:39:50 10° N
Cosmos 1975 4.1 06:37:30 10° SSE 06:41:17 43° E 06:45:04 10° NNE
Nadezhda 4 Rocket 4.4 06:40:18 10° SSW 06:46:02 40° WNW 06:51:45 10° N
Cosmos 2082 Rocket 3.6 06:43:37 10° W 06:47:06 16° NW 06:50:35 10° NNW
CSL-04 Rocket 3.9 06:41:51 10° NNE 06:47:27 84° ESE 06:52:58 10° SSW
YAOGAN 1 4.1 06:45:22 10° NNE 06:49:28 40° E 06:53:31 10° S
Timation 2 Rocket 4.3 06:43:22 10° SW 06:50:01 52° WNW 06:56:44 10° NNE
Meteor 1-23 Rocket 4.4 06:45:45 10° NNW 06:51:09 52° W 06:56:29 10° S
Cosmos 1697 Rocket 3.8 06:47:57 10° NW 06:52:18 24° W 06:56:39 10° SSW
CZ-2C R/B 3.1 06:50:28 10° N 06:54:41 30° WNW 06:58:47 10° SW
OAO 2 Rocket 4.1 06:53:03 10° W 06:58:03 45° SSW 07:02:55 10° SE
Cosmos 1833 Rocket 4.4 07:00:33 10° WNW 07:02:21 11° NW 07:04:09 10° NNW
Cosmos 1536 4.5 07:01:59 10° WSW 07:04:19 15° WNW 07:06:40 10° NW
CZ-4C R/B 2.4 06:59:42 10° SW 07:04:37 46° NW 07:10:14 10° NNE
